TimeCDT,TemperatureF,Dew PointF,Humidity,Sea Level PressureIn,VisibilityMPH,Wind Direction,Wind SpeedMPH,Gust SpeedMPH,PrecipitationIn,Events,Conditions,WindDirDegrees,DateUTC
12:53 AM,64.9,60.1,84,30.05,10.0,Calm,Calm,-,N/A,,Clear,0,2013-09-29 05:53:00
1:53 AM,63.0,60.1,90,30.04,10.0,Calm,Calm,-,N/A,,Clear,0,2013-09-29 06:53:00
2:53 AM,64.9,60.1,84,30.02,10.0,Calm,Calm,-,N/A,,Clear,0,2013-09-29 07:53:00
3:53 AM,63.0,60.1,90,30.01,10.0,Calm,Calm,-,N/A,,Clear,0,2013-09-29 08:53:00
4:53 AM,63.0,60.1,90,30.00,8.0,Calm,Calm,-,N/A,,Clear,0,2013-09-29 09:53:00
5:53 AM,64.0,61.0,90,30.01,9.0,Calm,Calm,-,N/A,,Clear,0,2013-09-29 10:53:00
6:53 AM,64.9,62.1,90,30.04,10.0,Calm,Calm,-,N/A,,Scattered Clouds,0,2013-09-29 11:53:00
7:53 AM,66.9,64.0,90,30.04,10.0,Calm,Calm,-,N/A,,Scattered Clouds,0,2013-09-29 12:53:00
8:53 AM,69.1,64.9,87,30.05,10.0,Calm,Calm,-,N/A,,Overcast,0,2013-09-29 13:53:00
9:53 AM,72.0,66.0,81,30.05,10.0,Calm,Calm,-,N/A,,Mostly Cloudy,0,2013-09-29 14:53:00
10:53 AM,73.0,66.9,81,30.06,10.0,Calm,Calm,-,N/A,,Overcast,0,2013-09-29 15:53:00
11:53 AM,73.9,68.0,82,30.04,10.0,Calm,Calm,-,N/A,,Overcast,0,2013-09-29 16:53:00
12:53 PM,75.0,68.0,79,30.03,10.0,Calm,Calm,-,N/A,,Overcast,0,2013-09-29 17:53:00
1:53 PM,75.9,69.1,79,30.00,10.0,Calm,Calm,-,N/A,,Overcast,0,2013-09-29 18:53:00
2:53 PM,75.0,69.1,82,29.99,5.0,West,4.6,-,0.02,Rain,Light Rain,270,2013-09-29 19:53:00
3:53 PM,73.9,71.1,91,29.98,7.0,North,5.8,-,0.02,Rain,Light Rain,350,2013-09-29 20:53:00
4:53 PM,73.9,69.1,85,29.98,10.0,North,4.6,-,0.00,,Overcast,10,2013-09-29 21:53:00
5:53 PM,73.0,70.0,90,29.97,9.0,East,4.6,-,N/A,,Overcast,80,2013-09-29 22:53:00
6:53 PM,71.1,68.0,90,29.98,10.0,Calm,Calm,-,N/A,,Overcast,0,2013-09-29 23:53:00
7:53 PM,71.1,69.1,93,29.98,6.0,Calm,Calm,-,0.00,,Scattered Clouds,0,2013-09-30 00:53:00
8:53 PM,71.1,69.1,93,29.98,5.0,Calm,Calm,-,0.00,,Partly Cloudy,0,2013-09-30 01:53:00
9:53 PM,70.0,69.1,97,29.96,5.0,East,3.5,-,N/A,,Mostly Cloudy,100,2013-09-30 02:53:00
10:53 PM,70.0,66.9,90,29.97,10.0,Calm,Calm,-,0.00,,Partly Cloudy,0,2013-09-30 03:53:00
11:53 PM,69.1,66.9,93,29.96,8.0,Calm,Calm,-,0.00,,Mostly Cloudy,0,2013-09-30 04:53:00